Weather History for Mount Pleasant, TX

Change the Weather History Date:

Saturday, November 24, 2012

  Actual Average (KGGG) Record (KGGG)
Temperature  
Mean Temperature 44 °F 53 °F  
Max Temperature 57 °F 64 °F 90 °F (1910)
Min Temperature 30 °F 42 °F 21 °F (1916)
Degree Days  
Heating Degree Days 22 12  
Month to date heating degree days 201  
Since 1 July heating degree days 290  
Cooling Degree Days 0 0  
Month to date cooling degree days 22  
Year to date cooling degree days 2417  
Moisture  
Dew Point 28 °F    
Average Humidity 59    
Maximum Humidity 93    
Minimum Humidity 30    
Precipitation  
Precipitation 0.00 in 0.15 in 2.30 in (1940)
Month to date precipitation 3.53  
Year to date precipitation 42.10  
Snow  
Snow 0.00 in - - ()
Month to date snowfall  
Since 1 July snowfall  
Since 1 September snowfall  
Snow Depth -    
Sea Level Pressure  
Sea Level Pressure 30.32 in    
Wind  
Wind Speed 3 mph (ESE)    
Max Wind Speed 7 mph    
Max Gust Speed -    
Visibility 10 miles    
Events      
T = Trace of Precipitation, MM = Missing Value Source: NWS Daily Summary

Daily Weather History Graph

Daily Weather History Graph

Search for Another Location

Airport:

Trip Planner

Search our weather history database for the weather conditions in past years. The results will help you decide how hot, cold, wet, or windy it might be!

Date:

Astronomy

Nov. 24, 2012 Rise Set
Actual Time 6:59 AM CST 5:13 PM CST
Civil Twilight 6:32 AM CST 5:40 PM CST
Nautical Twilight 6:02 AM CST 6:10 PM CST
Astronomical Twilight 5:32 AM CST 6:40 PM CST
Moon 2:51 PM CST (11/24) 3:25 AM CST (11/24)
Length of Visible Light 11h 08m
Length of Day
10h 14m
Waxing Gibbous, 87% of the Moon is Illuminated
Nov 24
Waxing Gibbous
Nov 28
Full
Dec 6
Last Quarter
Dec 13
New
Dec 19
First Quarter

Hourly Weather History & Observations

Time (CST) Temp. Windchill Dew Point Humidity Pressure Visibility Wind Dir Wind Speed Gust Speed Precip Events Conditions
12:15 AM 41.0 °F 36.4 °F 26.6 °F 57% 30.43 in 10.0 mi North 6.9 mph - N/A   Clear
12:35 AM 41.0 °F 36.4 °F 26.6 °F 57% 30.43 in 10.0 mi NNW 6.9 mph - N/A   Clear
12:55 AM 41.0 °F 38.0 °F 26.6 °F 57% 30.43 in 10.0 mi North 4.6 mph - N/A   Clear
1:15 AM 41.0 °F 39.0 °F 24.8 °F 53% 30.42 in 10.0 mi NNW 3.5 mph - N/A   Clear
1:35 AM 37.4 °F - 26.6 °F 65% 30.42 in 10.0 mi Calm Calm - N/A   Clear
1:55 AM 35.6 °F 32.8 °F 28.4 °F 75% 30.42 in 10.0 mi West 3.5 mph - N/A   Clear
2:15 AM 35.6 °F 32.8 °F 28.4 °F 75% 30.42 in 10.0 mi West 3.5 mph - N/A   Clear
2:35 AM 35.6 °F 32.8 °F 26.6 °F 70% 30.42 in 10.0 mi West 3.5 mph - N/A   Clear
2:55 AM 35.6 °F 30.7 °F 26.6 °F 70% 30.43 in 10.0 mi WNW 5.8 mph - N/A   Clear
3:15 AM 35.6 °F 31.7 °F 26.6 °F 70% 30.43 in 10.0 mi NW 4.6 mph - N/A   Clear
3:55 AM 35.6 °F - 26.6 °F 70% 30.42 in 10.0 mi Calm Calm - N/A   Clear
4:15 AM 33.8 °F - 26.6 °F 75% 30.42 in 10.0 mi Calm Calm - N/A   Clear
4:35 AM 33.8 °F 29.6 °F 26.6 °F 75% 30.41 in 10.0 mi NW 4.6 mph - N/A   Clear
4:55 AM 33.8 °F 30.8 °F 26.6 °F 75% 30.41 in 10.0 mi NW 3.5 mph - N/A   Clear
5:15 AM 33.8 °F - 28.4 °F 81% 30.41 in 10.0 mi Calm Calm - N/A   Clear
5:35 AM 32.0 °F - 28.4 °F 87% 30.41 in 10.0 mi Calm Calm - N/A   Clear
5:55 AM 30.2 °F - 26.6 °F 86% 30.41 in 10.0 mi Calm Calm - N/A   Clear
6:15 AM 32.0 °F - 28.4 °F 87% 30.41 in 10.0 mi Calm Calm - N/A   Clear
6:35 AM 30.2 °F 25.4 °F 28.4 °F 93% 30.42 in 10.0 mi NNW 4.6 mph - N/A   Clear
6:55 AM 30.2 °F 26.7 °F 28.4 °F 93% 30.43 in 10.0 mi NNW 3.5 mph - N/A   Clear
7:15 AM 30.2 °F 25.4 °F 28.4 °F 93% 30.44 in 10.0 mi NW 4.6 mph - N/A   Clear
7:35 AM 30.2 °F - 28.4 °F 93% 30.44 in 10.0 mi Calm Calm - N/A   Clear
7:55 AM 33.8 °F 29.6 °F 28.4 °F 81% 30.44 in 10.0 mi NNW 4.6 mph - N/A   Clear
8:15 AM 35.6 °F 31.7 °F 30.2 °F 81% 30.44 in 10.0 mi NW 4.6 mph - N/A   Clear
8:35 AM 37.4 °F 34.9 °F 28.4 °F 70% 30.44 in 10.0 mi NNW 3.5 mph - N/A   Clear
8:55 AM 39.2 °F - 32.0 °F 75% 30.44 in 10.0 mi Calm Calm - N/A   Clear
9:15 AM 41.0 °F - 30.2 °F 65% 30.44 in 10.0 mi Calm Calm - N/A   Clear
9:35 AM 42.8 °F - 28.4 °F 57% 30.43 in 10.0 mi Calm Calm - N/A   Clear
9:55 AM 44.6 °F 43.1 °F 26.6 °F 49% 30.43 in 10.0 mi East 3.5 mph - N/A   Clear
10:15 AM 46.4 °F 44.3 °F 26.6 °F 46% 30.42 in 10.0 mi SE 4.6 mph - N/A   Clear
10:35 AM 46.4 °F 43.5 °F 26.6 °F 46% 30.41 in 10.0 mi South 5.8 mph - N/A   Clear
10:55 AM 46.4 °F 45.2 °F 28.4 °F 50% 30.40 in 10.0 mi South 3.5 mph - N/A   Clear
11:15 AM 48.2 °F - 26.6 °F 43% 30.38 in 10.0 mi SSE 4.6 mph - N/A   Clear
11:35 AM 50.0 °F - 24.8 °F 37% 30.38 in 10.0 mi Calm Calm - N/A   Clear
11:55 AM 50.0 °F - 23.0 °F 35% 30.36 in 10.0 mi East 3.5 mph - N/A   Clear
12:15 PM 50.0 °F - 23.0 °F 35% 30.35 in 10.0 mi Calm Calm - N/A   Clear
12:35 PM 51.8 °F - 24.8 °F 35% 30.33 in 10.0 mi Calm Calm - N/A   Clear
12:55 PM 51.8 °F - 24.8 °F 35% 30.32 in 10.0 mi WSW 3.5 mph - N/A   Clear
1:15 PM 53.6 °F - 24.8 °F 33% 30.30 in 10.0 mi SE 4.6 mph - N/A   Clear
1:35 PM 53.6 °F - 23.0 °F 30% 30.29 in 10.0 mi Calm Calm - N/A   Clear
1:55 PM 53.6 °F - 23.0 °F 30% 30.28 in 10.0 mi Calm Calm - N/A   Clear
2:15 PM 53.6 °F - 23.0 °F 30% 30.27 in 10.0 mi Calm Calm - N/A   Clear
2:35 PM 55.4 °F - 24.8 °F 31% 30.27 in 10.0 mi Calm Calm - N/A   Clear
2:55 PM 55.4 °F - 24.8 °F 31% 30.26 in 10.0 mi Calm Calm - N/A   Clear
3:15 PM 55.4 °F - 24.8 °F 31% 30.25 in 10.0 mi Calm Calm - N/A   Clear
3:35 PM 57.2 °F - 26.6 °F 31% 30.25 in 10.0 mi Calm Calm - N/A   Clear
3:55 PM 55.4 °F - 24.8 °F 31% 30.24 in 10.0 mi Calm Calm - N/A   Clear
4:15 PM 55.4 °F - 26.6 °F 33% 30.23 in 10.0 mi SE 3.5 mph - N/A   Clear
4:35 PM 53.6 °F - 28.4 °F 38% 30.23 in 10.0 mi SSE 3.5 mph - N/A   Clear
4:55 PM 53.6 °F - 26.6 °F 35% 30.22 in 10.0 mi SSE 3.5 mph - N/A   Clear
5:15 PM 51.8 °F - 26.6 °F 38% 30.22 in 10.0 mi SSE 3.5 mph - N/A   Clear
5:35 PM 51.8 °F - 26.6 °F 38% 30.22 in 10.0 mi South 3.5 mph - N/A   Clear
5:55 PM 50.0 °F - 28.4 °F 43% 30.21 in 10.0 mi Calm Calm - N/A   Clear
6:15 PM 46.4 °F 45.2 °F 28.4 °F 50% 30.21 in 10.0 mi ESE 3.5 mph - N/A   Clear
6:35 PM 46.4 °F 43.5 °F 28.4 °F 50% 30.21 in 10.0 mi ESE 5.8 mph - N/A   Clear
6:55 PM 44.6 °F 42.2 °F 30.2 °F 57% 30.21 in 10.0 mi ESE 4.6 mph - N/A   Clear
7:15 PM 44.6 °F 43.1 °F 28.4 °F 53% 30.20 in 10.0 mi SE 3.5 mph - N/A   Clear
7:35 PM 42.8 °F 41.1 °F 30.2 °F 61% 30.20 in 10.0 mi SE 3.5 mph - N/A   Clear
7:55 PM 42.8 °F 41.1 °F 30.2 °F 61% 30.20 in 10.0 mi ESE 3.5 mph - N/A   Clear
8:15 PM 42.8 °F 40.1 °F 30.2 °F 61% 30.20 in 10.0 mi ESE 4.6 mph - N/A   Clear
8:35 PM 41.0 °F 37.1 °F 30.2 °F 65% 30.20 in 10.0 mi SE 5.8 mph - N/A   Clear
8:55 PM 39.2 °F 37.0 °F 32.0 °F 75% 30.19 in 10.0 mi ESE 3.5 mph - N/A   Clear
9:15 PM 39.2 °F 37.0 °F 30.2 °F 70% 30.19 in 10.0 mi ESE 3.5 mph - N/A   Clear
9:35 PM 37.4 °F 33.8 °F 32.0 °F 81% 30.18 in 10.0 mi SSE 4.6 mph - N/A   Clear
9:55 PM 37.4 °F 34.9 °F 32.0 °F 81% 30.18 in 10.0 mi SE 3.5 mph - N/A   Clear
10:15 PM 41.0 °F 39.0 °F 32.0 °F 70% 30.18 in 10.0 mi ESE 3.5 mph - N/A   Clear
10:35 PM 39.2 °F 37.0 °F 30.2 °F 70% 30.18 in 10.0 mi ESE 3.5 mph - N/A   Clear
10:55 PM 39.2 °F 35.9 °F 30.2 °F 70% 30.18 in 10.0 mi ESE 4.6 mph - N/A   Clear
11:15 PM 39.2 °F 35.9 °F 30.2 °F 70% 30.18 in 10.0 mi ESE 4.6 mph - N/A   Clear
11:35 PM 39.2 °F 35.9 °F 32.0 °F 75% 30.18 in 10.0 mi ESE 4.6 mph - N/A   Clear
11:55 PM 37.4 °F 33.8 °F 30.2 °F 75% 30.17 in 10.0 mi ESE 4.6 mph - N/A   Clear